GW3780 Weather Reports


Display with metric or nautical units.
time (UTC)temp
F
wind
direction
speed
MPH
gust
MPH
rain 1hr
in
rain 24hr
in
rain mn
in
humidity
%
barometer
mb
20260903165527 89 317 0.0 2.0 0.00 0.00 0.00 74 1018.5
20260903165024 89 309 1.0 2.0 0.00 0.00 0.00 74 1018.6
20260903164523 89 290 0.0 2.0 0.00 0.00 0.00 75 1018.7
20260903164019 89 353 0.0 2.0 0.00 0.00 0.00 76 1018.6
20260903163514 88 326 0.0 2.0 0.00 0.00 0.00 77 1018.7
20260903163010 88 290 0.0 1.0 0.00 0.00 0.00 77 1018.8
20260903162506 88 304 2.0 2.0 0.00 0.00 0.00 78 1018.9
20260903162001 88 295 2.0 2.0 0.00 0.00 0.00 79 1018.9
20260903161457 88 298 1.0 3.0 0.00 0.00 0.00 78 1018.8
20260903160953 87 0 0.0 2.0 0.00 0.00 0.00 79 1018.9
20260903160451 87 299 2.0 2.0 0.00 0.00 0.00 78 1019.2
20260903155951 87 180 0.0 3.0 0.00 0.00 0.00 79 1019.1
20260903155445 87 301 0.0 2.0 0.00 0.00 0.00 80 1018.9
20260903154942 87 304 2.0 2.0 0.00 0.00 0.00 80 1019.0
20260903154437 87 326 0.0 2.0 0.00 0.00 0.00 80 1019.0
20260903153932 87 58 2.0 2.0 0.00 0.00 0.00 81 1018.9
20260903153422 86 84 1.0 3.0 0.00 0.00 0.00 80 1019.0
20260903152919 86 68 0.0 2.0 0.00 0.00 0.00 81 1019.2
20260903152414 86 315 0.0 3.0 0.00 0.00 0.00 82 1019.1
20260903151909 86 30 0.0 2.0 0.00 0.00 0.00 81 1019.1
20260903151404 86 297 1.0 3.0 0.00 0.00 0.00 82 1019.0
20260903150858 86 331 3.0 4.0 0.00 0.00 0.00 81 1019.1
20260903150353 86 303 2.0 3.0 0.00 0.00 0.00 82 1018.9
20260903145847 86 277 1.0 3.0 0.00 0.00 0.00 81 1019.1
20260903145343 85 92 0.0 3.0 0.00 0.00 0.00 81 1018.8
20260903144841 85 286 0.0 2.0 0.00 0.00 0.00 82 1018.9
20260903144332 85 296 2.0 3.0 0.00 0.00 0.00 81 1018.9
20260903143827 85 315 2.0 2.0 0.00 0.00 0.00 80 1018.8
20260903143324 85 308 2.0 3.0 0.00 0.00 0.00 81 1018.8
20260903142819 85 24 3.0 3.0 0.00 0.00 0.00 80 1018.7
20260903142315 85 310 1.0 3.0 0.00 0.00 0.00 80 1018.5
20260903141811 85 307 2.0 3.0 0.00 0.00 0.00 81 1018.7
20260903141307 85 300 1.0 2.0 0.00 0.00 0.00 79 1018.7
20260903140806 85 298 0.0 3.0 0.00 0.00 0.00 80 1018.7
20260903140301 84 317 2.0 2.0 0.00 0.00 0.00 81 1018.5
20260903135757 84 191 1.0 2.0 0.00 0.00 0.00 80 1018.3
20260903135252 84 217 0.0 2.0 0.00 0.00 0.00 80 1018.2
20260903134751 84 333 0.0 0.0 0.00 0.00 0.00 81 1018.2
20260903134247 84 299 1.0 2.0 0.00 0.00 0.00 80 1018.2
20260903133744 84 216 0.0 2.0 0.00 0.00 0.00 81 1018.4
20260903133240 84 336 0.0 1.0 0.00 0.00 0.00 81 1018.5
20260903132740 83 246 0.0 1.0 0.00 0.00 0.00 81 1018.5
20260903132235 83 283 0.0 2.0 0.00 0.00 0.00 85 1018.8
20260903131730 82 296 0.0 2.0 0.00 0.00 0.00 84 1018.8
20260903131224 82 230 0.0 1.0 0.00 0.00 0.00 85 1018.7
20260903130719 82 306 0.0 1.0 0.00 0.00 0.00 87 1018.6
20260903130215 81 205 0.0 2.0 0.00 0.00 0.00 85 1018.7
20260903125712 82 217 1.0 2.0 0.00 0.00 0.00 84 1018.7
20260903125208 82 260 0.0 1.0 0.00 0.00 0.00 84 1019.0
20260903124706 82 310 0.0 1.0 0.00 0.00 0.00 88 1019.0
20260903124201 79 325 0.0 1.0 0.00 0.00 0.00 92 1019.0
20260903123700 78 349 0.0 2.0 0.00 0.00 0.00 94 1019.0
20260903123159 78 202 0.0 1.0 0.00 0.00 0.00 94 1018.9
20260903122653 78 311 0.0 1.0 0.00 0.00 0.00 95 1018.8
20260903122148 77 278 0.0 1.0 0.00 0.00 0.00 96 1018.7
20260903121647 77 217 0.0 1.0 0.00 0.00 0.00 98 1019.1
20260903121143 77 297 0.0 1.0 0.00 0.00 0.00 99 1019.0
20260903120642 76 305 0.0 1.0 0.00 0.00 0.00 99 1018.9
20260903120136 76 306 0.0 2.0 0.00 0.00 0.00 99 1019.0
20260903115634 76 217 0.0 2.0 0.00 0.00 0.00 99 1018.5
20260903115130 76 310 0.0 1.0 0.00 0.00 0.00 99 1018.8
20260903114625 75 242 0.0 1.0 0.00 0.00 0.00 99 1018.7
20260903114121 75 272 0.0 1.0 0.00 0.00 0.00 99 1018.8
20260903113616 75 320 0.0 1.0 0.00 0.00 0.00 99 1018.6
20260903113113 75 4 0.0 1.0 0.00 0.00 0.00 99 1018.6
20260903112609 74 343 0.0 1.0 0.00 0.00 0.00 99 1018.5
20260903112109 74 319 0.0 1.0 0.00 0.00 0.00 99 1018.5
20260903111608 74 331 1.0 1.0 0.00 0.00 0.00 99 1018.5
20260903111104 74 332 0.0 1.0 0.00 0.00 0.00 99 1018.5
20260903110559 74 332 0.0 1.0 0.00 0.00 0.00 99 1018.3
20260903110054 74 323 1.0 2.0 0.00 0.00 0.00 99 1018.4
20260903105549 74 333 0.0 0.0 0.00 0.00 0.00 99 1018.2
20260903105043 74 326 0.0 1.0 0.00 0.00 0.00 99 1018.3
20260903104538 74 329 0.0 2.0 0.00 0.00 0.00 99 1018.2
20260903104034 74 327 1.0 2.0 0.00 0.00 0.00 99 1018.3
20260903103529 74 0 0.0 1.0 0.00 0.00 0.00 99 1018.3
20260903103026 74 331 0.0 2.0 0.00 0.00 0.00 99 1018.2
20260903102520 74 304 0.0 0.0 0.00 0.00 0.00 99 1018.2
20260903102020 75 327 0.0 0.0 0.00 0.00 0.00 99 1018.3
20260903101514 75 353 0.0 0.0 0.00 0.00 0.00 99 1018.2
20260903101010 75 336 0.0 1.0 0.00 0.00 0.00 99 1018.3
20260903100504 75 2 0.0 2.0 0.00 0.00 0.00 99 1018.4
20260903100002 75 343 0.0 2.0 0.00 0.00 0.00 99 1018.5
20260903095456 75 326 2.0 2.0 0.00 0.00 0.00 99 1018.3
20260903094951 75 326 0.0 1.0 0.00 0.00 0.00 99 1018.3
20260903094451 75 334 0.0 1.0 0.00 0.00 0.00 99 1018.3
20260903093947 75 296 0.0 0.0 0.00 0.00 0.00 99 1018.2
20260903093442 75 353 0.0 0.0 0.00 0.00 0.00 99 1018.1
20260903092938 75 333 0.0 0.0 0.00 0.00 0.00 99 1018.4
20260903092437 75 331 1.0 1.0 0.00 0.00 0.00 99 1018.2
20260903091936 75 339 0.0 0.0 0.00 0.00 0.00 99 1018.2
20260903091435 75 339 0.0 0.0 0.00 0.00 0.00 99 1018.1
20260903090930 75 283 0.0 1.0 0.00 0.00 0.00 99 1018.1
20260903090426 75 337 0.0 2.0 0.00 0.00 0.00 99 1018.0
20260903085924 75 320 1.0 1.0 0.00 0.00 0.00 99 1018.0
20260903085423 75 331 0.0 1.0 0.00 0.00 0.00 99 1017.9
20260903084922 75 308 1.0 1.0 0.00 0.00 0.00 99 1017.7
20260903084421 75 298 0.0 0.0 0.00 0.00 0.00 99 1017.8
20260903083916 75 350 0.0 2.0 0.00 0.00 0.00 99 1017.6
20260903083413 75 326 0.0 1.0 0.00 0.00 0.00 99 1017.7
20260903082911 75 315 0.0 1.0 0.00 0.00 0.00 99 1017.6
20260903082407 75 333 0.0 1.0 0.00 0.00 0.00 99 1017.5
20260903081902 75 333 0.0 0.0 0.00 0.00 0.00 99 1017.6
20260903081356 75 333 0.0 1.0 0.00 0.00 0.00 99 1017.7
20260903080853 75 297 0.0 0.0 0.00 0.00 0.00 99 1017.9
20260903080349 75 315 0.0 0.0 0.00 0.00 0.00 99 1017.8
20260903075844 75 297 0.0 1.0 0.00 0.00 0.00 99 1017.9
20260903075339 75 315 0.0 0.0 0.00 0.00 0.00 99 1017.9
20260903074839 75 336 0.0 1.0 0.00 0.00 0.00 99 1018.0
20260903074333 75 333 0.0 0.0 0.00 0.00 0.00 99 1018.1
20260903073829 75 329 0.0 1.0 0.00 0.00 0.00 99 1018.2
20260903073324 75 322 0.0 0.0 0.00 0.00 0.00 99 1018.1
20260903072820 75 322 0.0 0.0 0.00 0.00 0.00 99 1018.0
20260903072316 76 331 0.0 1.0 0.00 0.00 0.00 99 1018.1
20260903071812 76 299 0.0 0.0 0.00 0.00 0.00 99 1018.2
20260903071308 76 297 0.0 0.0 0.00 0.00 0.00 99 1017.9
20260903070802 76 298 0.0 1.0 0.00 0.00 0.00 99 1017.9
20260903070258 76 283 0.0 0.0 0.00 0.00 0.00 99 1018.2
20260903065753 76 309 0.0 1.0 0.00 0.00 0.00 99 1018.2
20260903065252 76 308 1.0 2.0 0.00 0.00 0.00 99 1018.3
20260903064751 76 293 0.0 1.0 0.00 0.00 0.00 99 1018.3
20260903064247 75 316 0.0 0.0 0.00 0.00 0.00 99 1018.4
20260903063743 76 321 0.0 1.0 0.00 0.00 0.00 99 1018.3
20260903063237 76 309 0.0 1.0 0.00 0.00 0.00 99 1018.3
20260903062734 76 322 0.0 0.0 0.00 0.00 0.00 99 1018.3
20260903062232 76 315 0.0 0.0 0.00 0.00 0.00 99 1018.3
20260903061729 76 326 0.0 0.0 0.00 0.00 0.00 99 1018.5
20260903061228 76 321 0.0 1.0 0.00 0.00 0.00 99 1018.3
20260903060724 76 309 0.0 1.0 0.00 0.00 0.00 99 1018.4
20260903060224 76 315 0.0 0.0 0.00 0.00 0.00 99 1018.2
20260903055721 76 315 0.0 0.0 0.00 0.00 0.00 98 1018.1
20260903055220 76 310 0.0 1.0 0.00 0.00 0.00 98 1018.5
20260903054715 76 312 0.0 1.0 0.00 0.00 0.00 98 1018.5
20260903054210 76 301 0.0 1.0 0.00 0.00 0.00 98 1018.6
20260903053707 77 297 0.0 0.0 0.00 0.00 0.00 98 1018.5
20260903053201 77 284 0.0 1.0 0.00 0.00 0.00 98 1018.7
20260903052657 77 343 1.0 2.0 0.00 0.00 0.00 97 1018.9
20260903052153 77 315 0.0 2.0 0.00 0.00 0.00 97 1018.8
20260903051647 77 319 1.0 2.0 0.00 0.00 0.00 97 1018.9
20260903051143 77 295 0.0 1.0 0.00 0.00 0.00 97 1018.8
20260903050638 77 299 2.0 3.0 0.00 0.00 0.00 96 1018.9
20260903050132 77 320 1.0 1.0 0.00 0.00 0.00 96 1018.8
20260903045632 77 297 0.0 1.0 0.00 0.00 0.00 96 1019.0
20260903045129 77 296 0.0 1.0 0.00 0.00 0.00 96 1019.0
20260903044624 77 306 1.0 1.0 0.00 0.00 0.00 96 1018.7
20260903044119 77 315 0.0 1.0 0.00 0.00 0.00 95 1018.7
20260903043616 78 316 1.0 2.0 0.00 0.00 0.00 95 1018.8
20260903043115 78 311 0.0 1.0 0.00 0.00 0.00 95 1018.8
20260903042615 78 343 0.0 1.0 0.00 0.00 0.00 94 1018.7
20260903042110 78 214 0.0 2.0 0.00 0.00 0.00 94 1019.0
20260903041607 78 347 1.0 2.0 0.00 0.00 0.00 94 1018.6
20260903041102 78 321 0.0 1.0 0.00 0.00 0.00 94 1018.5
20260903040601 78 282 0.0 0.0 0.00 0.00 0.00 94 1018.5
20260903040058 78 352 0.0 1.0 0.00 0.00 0.00 94 1018.5
20260903035553 78 309 0.0 1.0 0.00 0.00 0.00 94 1018.4
20260903035048 78 0 0.0 0.0 0.00 0.00 0.00 95 1018.5
20260903034543 78 235 0.0 1.0 0.00 0.00 0.00 95 1018.7
20260903034039 78 322 1.0 2.0 0.00 0.00 0.00 95 1018.2
20260903033533 78 325 1.0 2.0 0.00 0.00 0.00 95 1018.3
20260903033029 79 341 1.0 1.0 0.00 0.00 0.00 94 1018.3
20260903032523 79 329 0.0 1.0 0.00 0.00 0.00 94 1018.1
20260903032019 79 322 0.0 0.0 0.00 0.00 0.00 94 1018.0
20260903031518 79 230 0.0 0.0 0.00 0.00 0.00 94 1018.2
20260903031014 79 329 0.0 1.0 0.00 0.00 0.00 94 1018.2
20260903030509 79 316 0.0 1.0 0.00 0.00 0.00 94 1018.4
20260903030006 79 322 1.0 2.0 0.00 0.00 0.00 94 1018.2
20260903025501 79 322 1.0 1.0 0.00 0.00 0.00 94 1018.2
20260903024956 79 329 1.0 2.0 0.00 0.00 0.00 94 1018.3
20260903024455 79 323 1.0 1.0 0.00 0.00 0.00 94 1018.1
20260903023950 79 324 0.0 1.0 0.00 0.00 0.00 94 1018.3
20260903023445 79 319 1.0 1.0 0.00 0.00 0.00 93 1018.3
20260903022941 79 322 0.0 1.0 0.00 0.00 0.00 93 1018.4
20260903022440 79 308 1.0 2.0 0.00 0.00 0.00 93 1018.5
20260903021938 79 326 0.0 1.0 0.00 0.00 0.00 93 1018.6
20260903021434 80 322 0.0 1.0 0.00 0.00 0.00 92 1018.6
20260903020929 80 309 0.0 2.0 0.00 0.00 0.00 92 1018.9
20260903020424 80 326 0.0 2.0 0.00 0.00 0.00 92 1018.7
20260903015919 80 301 0.0 1.0 0.00 0.00 0.00 92 1019.0
20260903015415 80 292 1.0 2.0 0.00 0.00 0.00 92 1018.9
20260903014909 80 296 1.0 2.0 0.00 0.00 0.00 92 1018.9
20260903014408 80 333 0.0 1.0 0.00 0.00 0.00 91 1018.9
20260903013904 80 294 1.0 1.0 0.00 0.00 0.00 91 1018.9
20260903013403 80 297 2.0 2.0 0.00 0.00 0.00 91 1018.8
20260903012902 80 306 1.0 2.0 0.00 0.00 0.00 91 1019.0
20260903012357 81 306 1.0 2.0 0.00 0.00 0.00 90 1018.9
20260903011855 81 306 1.0 1.0 0.00 0.00 0.00 90 1018.8
20260903011350 81 303 0.0 1.0 0.00 0.00 0.00 90 1018.9
20260903010846 81 311 1.0 2.0 0.00 0.00 0.00 90 1018.9
20260903010341 81 321 2.0 2.0 0.00 0.00 0.00 89 1018.8
20260903005839 81 313 0.0 1.0 0.00 0.00 0.00 88 1018.9
20260903005335 81 316 1.0 1.0 0.00 0.00 0.00 88 1018.8
20260903004831 82 297 0.0 1.0 0.00 0.00 0.00 88 1018.7
20260903004326 82 310 0.0 2.0 0.00 0.00 0.00 88 1018.7
20260903003821 82 323 2.0 2.0 0.00 0.00 0.00 87 1018.5
20260903003316 82 301 1.0 2.0 0.00 0.00 0.00 87 1018.4
20260903002816 82 311 0.0 2.0 0.00 0.00 0.00 87 1018.5
20260903002315 82 309 0.0 2.0 0.00 0.00 0.00 86 1018.2
20260903001810 82 352 0.0 1.0 0.00 0.00 0.00 86 1018.4
20260903001305 82 299 0.0 2.0 0.00 0.00 0.00 86 1018.1
20260903000800 82 333 0.0 1.0 0.00 0.00 0.00 85 1018.3
20260903000256 83 325 0.0 1.0 0.00 0.00 0.00 84 1018.4
20260902235753 83 322 1.0 1.0 0.00 0.00 0.00 84 1018.7
20260902235248 83 330 1.0 2.0 0.00 0.00 0.00 84 1018.4
20260902234748 83 294 2.0 2.0 0.00 0.00 0.00 84 1018.2
20260902234242 84 326 2.0 2.0 0.00 0.00 0.00 84 1018.2
20260902233742 84 321 0.0 3.0 0.00 0.00 0.00 83 1018.4
20260902233236 84 325 1.0 1.0 0.00 0.00 0.00 84 1018.3
20260902232734 84 135 0.0 2.0 0.00 0.00 0.00 83 1018.3
20260902232229 84 289 2.0 3.0 0.00 0.00 0.00 83 1018.5
20260902231728 84 117 0.0 0.0 0.00 0.00 0.00 83 1018.7
20260902231224 84 304 0.0 1.0 0.00 0.00 0.00 84 1019.0
20260902230719 84 292 2.0 2.0 0.00 0.00 0.00 84 1019.1
20260902230218 84 318 1.0 2.0 0.00 0.00 0.00 84 1019.0
20260902225712 84 265 2.0 3.0 0.00 0.00 0.00 84 1018.7
20260902225207 84 306 0.0 2.0 0.00 0.00 0.00 84 1018.7
20260902224705 84 226 0.0 2.0 0.00 0.00 0.00 84 1018.3
20260902224200 84 357 1.0 3.0 0.00 0.00 0.00 84 1018.3
20260902223657 84 327 1.0 2.0 0.00 0.00 0.00 83 1018.6
20260902223156 84 315 0.0 1.0 0.00 0.00 0.00 83 1018.8
20260902222649 84 147 0.0 0.0 0.00 0.00 0.00 82 1019.2
20260902222148 84 156 0.0 1.0 0.00 0.00 0.00 81 1019.2
20260902221643 84 154 0.0 3.0 0.00 0.00 0.00 80 1019.3
20260902221138 84 321 2.0 4.0 0.00 0.00 0.00 80 1019.5
20260902220634 84 284 0.0 2.0 0.00 0.00 0.00 80 1018.8
20260902220133 84 340 2.0 4.0 0.00 0.00 0.00 79 1018.7
20260902215629 84 315 1.0 1.0 0.00 0.00 0.00 79 1018.7
20260902215125 85 322 0.0 3.0 0.00 0.00 0.00 78 1018.8
20260902214620 85 350 0.0 3.0 0.00 0.00 0.00 77 1018.9
20260902214118 85 284 0.0 2.0 0.00 0.00 0.00 77 1018.9
20260902213615 85 289 2.0 4.0 0.00 0.00 0.00 76 1019.1
20260902213113 86 299 2.0 4.0 0.00 0.00 0.00 75 1018.6
20260902212609 87 103 2.0 3.0 0.00 0.00 0.00 73 1018.5
20260902212105 87 259 0.0 3.0 0.00 0.00 0.00 71 1018.7
20260902211601 88 332 1.0 3.0 0.00 0.00 0.00 71 1019.1
20260902211056 88 329 1.0 4.0 0.00 0.00 0.00 70 1018.8
20260902210556 89 353 3.0 6.0 0.00 0.00 0.00 70 1018.9
20260902210055 89 290 2.0 3.0 0.00 0.00 0.00 72 1018.7
20260902205555 88 180 0.0 5.0 0.00 0.00 0.00 73 1018.5
20260902205051 89 313 2.0 8.0 0.00 0.00 0.00 72 1018.7
20260902204545 90 3 4.0 4.0 0.00 0.00 0.00 70 1018.9
20260902204039 92 232 3.0 8.0 0.00 0.00 0.00 67 1018.8
20260902203534 93 285 1.0 3.0 0.00 0.00 0.00 64 1018.7
20260902203034 93 291 3.0 4.0 0.00 0.00 0.00 64 1018.8
20260902202530 93 76 0.0 3.0 0.00 0.00 0.00 64 1018.5
20260902202026 93 320 2.0 5.0 0.00 0.00 0.00 64 1018.6
20260902201521 93 306 2.0 3.0 0.00 0.00 0.00 62 1018.6
20260902201015 93 343 1.0 3.0 0.00 0.00 0.00 62 1018.9
20260902200511 92 293 2.0 3.0 0.00 0.00 0.00 63 1018.8
20260902200007 92 313 2.0 3.0 0.00 0.00 0.00 63 1018.7
20260902195502 93 301 1.0 5.0 0.00 0.00 0.00 62 1018.8
20260902195000 93 316 2.0 4.0 0.00 0.00 0.00 61 1018.7
20260902194455 94 288 1.0 4.0 0.00 0.00 0.00 60 1018.7
20260902193951 94 332 1.0 8.0 0.00 0.00 0.00 60 1018.5
20260902193446 94 298 2.0 2.0 0.00 0.00 0.00 59 1018.4
20260902192945 94 281 1.0 2.0 0.00 0.00 0.00 59 1018.3
20260902192443 94 299 0.0 2.0 0.00 0.00 0.00 59 1018.5
20260902191942 94 283 3.0 5.0 0.00 0.00 0.00 57 1018.6
20260902191438 94 286 2.0 2.0 0.00 0.00 0.00 58 1018.5
20260902190933 94 305 3.0 3.0 0.00 0.00 0.00 59 1018.5
20260902190428 93 262 2.0 3.0 0.00 0.00 0.00 60 1018.5
20260902185924 94 78 0.0 2.0 0.00 0.00 0.00 57 1018.6
20260902185420 94 296 3.0 4.0 0.00 0.00 0.00 59 1018.8
20260902184915 93 174 1.0 4.0 0.00 0.00 0.00 60 1018.8
20260902184410 93 308 3.0 4.0 0.00 0.00 0.00 60 1018.8
20260902183906 94 304 4.0 4.0 0.00 0.00 0.00 60 1019.2
20260902183402 95 156 0.0 3.0 0.00 0.00 0.00 59 1019.0
20260902182857 95 310 2.0 3.0 0.00 0.00 0.00 59 1018.8
20260902182353 95 298 2.0 3.0 0.00 0.00 0.00 58 1018.9
20260902181850 95 268 0.0 2.0 0.00 0.00 0.00 58 1019.1
20260902181340 95 280 3.0 4.0 0.00 0.00 0.00 59 1019.3
20260902180838 94 351 0.0 2.0 0.00 0.00 0.00 60 1019.1
20260902180335 94 151 3.0 4.0 0.00 0.00 0.00 59 1019.1
20260902175830 94 318 2.0 5.0 0.00 0.00 0.00 59 1019.3
20260902175325 94 219 2.0 5.0 0.00 0.00 0.00 59 1019.4
20260902174821 94 297 2.0 4.0 0.00 0.00 0.00 59 1019.3
20260902174318 95 278 0.0 3.0 0.00 0.00 0.00 59 1019.3
20260902173813 94 298 2.0 3.0 0.00 0.00 0.00 60 1019.4
20260902173313 94 302 2.0 5.0 0.00 0.00 0.00 58 1019.3
20260902172813 93 310 3.0 4.0 0.00 0.00 0.00 58 1019.2
20260902172308 93 294 2.0 4.0 0.00 0.00 0.00 59 1019.4
20260902171802 93 320 2.0 3.0 0.00 0.00 0.00 61 1019.3
20260902171256 93 301 4.0 5.0 0.00 0.00 0.00 61 1019.2
20260902170748 92 290 2.0 2.0 0.00 0.00 0.00 62 1019.2
20260902170243 92 337 0.0 4.0 0.00 0.00 0.00 60 1019.2
20260902165738 92 300 2.0 3.0 0.00 0.00 0.00 63 1019.2